Location: LDNL
(36.4545°S, 141.6685°E)
Time: 00:47:36
(UTC+11:00)

A-11 Canister half - Visible Passes

Search period start: 06 February 2023 00:00
Search period end: 16 February 2023 00:00
Orbit: 1514 x 1686 km, 47.2° (Epoch: 04 February)

Date Brightness Start Highest point End Pass type
(mag) Time Alt. Az. Time Alt. Az. Time Alt. Az.
06 Feb 9.7 01:37:38 10° W 01:47:03 51° SSW 01:56:49 10° ESE visible
06 Feb 9.9 03:44:21 10° WSW 03:53:55 48° S 04:03:42 10° E visible
06 Feb 9.3 05:49:50 10° WSW 06:00:01 86° SSE 06:10:17 10° ENE visible
06 Feb 9.9 21:07:50 10° N 21:14:36 23° NE 21:21:30 10° E visible
06 Feb 8.9 23:08:53 10° NW 23:18:22 79° NE 23:28:17 10° ESE visible
07 Feb 9.7 01:14:36 10° W 01:24:00 52° SSW 01:33:46 10° ESE visible
07 Feb 9.9 03:21:21 10° WSW 03:30:51 47° S 03:40:36 10° E visible
07 Feb 9.3 05:26:51 10° WSW 05:37:01 83° SSE 05:47:17 10° ENE visible
07 Feb 8.9 22:46:02 10° NW 22:55:26 75° NE 23:05:16 10° ESE visible
08 Feb 9.6 00:51:34 10° W 01:00:57 53° SSW 01:10:44 10° ESE visible
08 Feb 9.9 02:58:20 10° WSW 03:07:47 47° S 03:17:29 10° E visible
08 Feb 9.3 05:03:53 10° WSW 05:14:01 80° SSE 05:24:17 10° ENE visible
08 Feb 8.9 22:23:10 10° NW 22:32:30 71° NE 22:42:16 10° ESE visible
09 Feb 9.6 00:28:32 10° W 00:37:55 54° SSW 00:47:43 10° ESE visible
09 Feb 9.9 02:35:19 10° WSW 02:44:42 46° S 02:54:22 10° ESE visible
09 Feb 9.3 04:40:56 10° WSW 04:51:01 76° SSE 05:01:16 10° ENE visible
09 Feb 8.9 22:00:19 10° NW 22:09:35 67° NE 22:19:15 10° ESE visible
10 Feb 9.5 00:05:31 10° W 00:14:53 56° SSW 00:24:41 10° ESE visible
10 Feb 9.9 02:12:17 10° WSW 02:21:38 46° S 02:31:16 10° ESE visible
10 Feb 9.3 04:17:58 10° WSW 04:28:00 73° SSE 04:38:13 10° ENE visible
10 Feb 9.5 06:23:25 10° WSW 06:32:45 44° NW 06:42:09 10° NNE visible
10 Feb 9.0 21:37:29 10° NW 21:46:41 63° NE 21:56:14 10° ESE visible
10 Feb 9.5 23:42:29 10° W 23:51:52 58° SSW 00:01:39 10° ESE visible
11 Feb 9.9 01:49:16 10° WSW 01:58:33 45° S 02:08:08 10° ESE visible
11 Feb 9.3 03:55:01 10° WSW 04:05:00 71° SSE 04:15:11 10° ENE visible
11 Feb 9.4 06:00:24 10° WSW 06:09:50 47° NW 06:19:21 10° NNE visible
11 Feb 9.0 21:14:40 10° NNW 21:23:46 59° NE 21:33:15 10° ESE visible
11 Feb 9.5 23:19:28 10° WNW 23:28:51 60° SSW 23:38:38 10° ESE visible
12 Feb 9.9 01:26:15 10° WSW 01:35:29 45° S 01:45:03 10° ESE visible
12 Feb 9.3 03:32:02 10° WSW 03:41:59 68° SSE 03:52:08 10° ENE visible
12 Feb 9.3 05:37:22 10° WSW 05:46:54 50° NW 05:56:32 10° NNE visible
12 Feb 9.1 20:51:52 10° NNW 21:00:53 56° NE 21:10:13 10° ESE visible
12 Feb 9.4 22:56:28 10° WNW 23:05:50 62° SSW 23:15:38 10° ESE visible
13 Feb 9.9 01:03:13 10° WSW 01:12:25 45° S 01:21:56 10° ESE visible
13 Feb 9.3 03:09:05 10° WSW 03:18:57 65° SSE 03:29:04 10° ENE visible
13 Feb 9.2 05:14:21 10° WSW 05:23:58 53° NW 05:33:43 10° NNE visible
13 Feb 9.4 22:33:28 10° WNW 22:42:51 64° SSW 22:52:38 10° ESE visible
14 Feb 9.9 00:40:11 10° WSW 00:49:21 45° S 00:58:50 10° ESE visible
14 Feb 9.4 02:46:07 10° WSW 02:55:56 63° SSE 03:06:00 10° ENE visible
14 Feb 9.1 04:51:22 10° WSW 05:01:02 56° NW 05:10:53 10° NNE visible
14 Feb 9.4 22:10:28 10° WNW 22:19:51 66° SSW 22:29:37 10° ESE visible
15 Feb 9.9 00:17:09 10° WSW 00:26:17 45° S 00:35:44 10° ESE visible
15 Feb 9.4 02:23:09 10° WSW 02:32:54 61° SSE 02:42:56 10° ENE visible
15 Feb 9.0 04:28:22 10° WSW 04:38:06 60° NW 04:48:01 10° NNE visible
15 Feb 10.3 06:36:48 10° W 06:41:42 15° WNW 06:46:38 10° NNW visible
15 Feb 9.3 21:47:29 10° WNW 21:56:51 69° SSW 22:06:37 10° SE visible
